This is the latest recevied weather packets stored in our database for station/object W1HVD. If no packets are shown the sender has not sent any weather packets the latest 1 day(s).
| Time | Temp. | Humidity | Pressure | Rain* | Wind** | Luminosity | Snow |
|---|---|---|---|---|---|---|---|
| 1778055525 | 14.44° C | 88% | 1012 hPa | 0 mm | 0.45 m/s, 201° | 0 W/m² | - |
| 1778055224 | 14.44° C | 88% | 1012 hPa | 0 mm | 0.89 m/s, 199° | 0 W/m² | - |
| 1778054921 | 14.44° C | 88% | 1012.1 hPa | 0 mm | 0 m/s | 0 W/m² | - |
| 1778054618 | 14.44° C | 87% | 1012.1 hPa | 0 mm | 0.45 m/s, 219° | 0 W/m² | - |
| 1778054316 | 14.44° C | 87% | 1011.9 hPa | 0 mm | 0.89 m/s, 111° | 0 W/m² | - |
| 1778054013 | 14.44° C | 87% | 1011.8 hPa | 0 mm | 0.45 m/s, 268° | 0 W/m² | - |
| 1778053709 | 14.44° C | 87% | 1012 hPa | 0 mm | 3.13 m/s, 154° | 0 W/m² | - |
| 1778053406 | 14.44° C | 87% | 1011.9 hPa | 0 mm | 1.34 m/s, 238° | 0 W/m² | - |
| 1778053104 | 14.44° C | 87% | 1011.9 hPa | 0 mm | 1.79 m/s, 162° | 0 W/m² | - |
| 1778052802 | 14.44° C | 87% | 1011.8 hPa | 0 mm | 0.89 m/s, 89° | 0 W/m² | - |
| 1778052498 | 14.44° C | 87% | 1011.9 hPa | 0 mm | 2.24 m/s, 191° | 0 W/m² | - |
| 1778052196 | 14.44° C | 87% | 1012 hPa | 0 mm | 1.79 m/s, 225° | 0 W/m² | - |
| 1778051893 | 14.44° C | 87% | 1011.8 hPa | 0 mm | 2.68 m/s, 76° | 0 W/m² | - |
| 1778051591 | 14.44° C | 86% | 1011.9 hPa | 0 mm | 1.34 m/s, 169° | 0 W/m² | - |
| 1778051288 | 14.44° C | 86% | 1011.8 hPa | 0 mm | 0.89 m/s, 132° | 0 W/m² | - |
| 1778050985 | 14.44° C | 86% | 1011.7 hPa | 0 mm | 0.89 m/s, 263° | 0 W/m² | - |
| 1778050682 | 14.44° C | 86% | 1011.7 hPa | 0 mm | 0.89 m/s, 189° | 0 W/m² | - |
| 1778050379 | 14.44° C | 86% | 1011.8 hPa | 0 mm | 0.89 m/s, 169° | 0 W/m² | - |
| 1778050076 | 14.44° C | 86% | 1011.7 hPa | 0 mm | 0.45 m/s, 186° | 0 W/m² | - |
| 1778049771 | 14.44° C | 85% | 1011.6 hPa | 0 mm | 0.89 m/s, 202° | 0 W/m² | - |
| 1778049469 | 14.44° C | 85% | 1011.7 hPa | 0 mm | 3.13 m/s, 218° | 0 W/m² | - |
| 1778049166 | 14.44° C | 85% | 1011.8 hPa | 0 mm | 0.45 m/s, 99° | 0 W/m² | - |
| 1778048865 | 14.44° C | 85% | 1011.8 hPa | 0 mm | 0.45 m/s, 253° | 0 W/m² | - |
| 1778048563 | 14.44° C | 84% | 1011.9 hPa | 0 mm | 0.89 m/s, 189° | 0 W/m² | - |
| 1778048258 | 14.44° C | 84% | 1011.7 hPa | 0 mm | 0.89 m/s, 12° | 0 W/m² | - |
* Rain latest hour (hover to see other rain measurements)
** Current wind speed in m/s (hover to see current wind gust speed)